Location: Aldenham
(51.6667°N, 0.3500°W)
Time: 01:55:57
(UTC+00:00)

Cosmos 1954 Rocket - Pass Details

Date: 18 November 2025
Orbit: 749 x 776 km, 74.0° (Epoch: 13 December)

Event Time Altitude Azimuth Distance (km) Brightness Sun altitude
Rises 18:06:57 0° 190° (S) 3,237 7.5 -18.2°
Reaches altitude 10° 18:09:21 10° 186° (S) 2,311 6.6 -18.6°
Maximum altitude 18:14:29 58° 109° (ESE) 895 4.0 -19.4°
Enters shadow 18:16:53 31° 43° (NE) 1,340 4.8 -19.7°
